Weather History for KTKC - July, 2013

Change the Weather History Date:

Sunday, July 21, 2013

  Actual Average (KMML) Record (KMML)
Temperature  
Mean Temperature 74 °F -  
Max Temperature 86 °F 82 °F 95 °F (1955)
Min Temperature 63 °F 60 °F 48 °F (2000)
Cooling Degree Days 10    
Growing Degree Days 24 (Base 50)    
Moisture  
Dew Point 64 °F    
Average Humidity 71    
Maximum Humidity 96    
Minimum Humidity 40    
Precipitation  
Precipitation 0.01 in - - ()
Sea Level Pressure  
Sea Level Pressure 29.86 in    
Wind  
Wind Speed 0 mph (South)    
Max Wind Speed 9 mph    
Max Gust Speed -    
Visibility 10 miles    
Events Fog , Rain    
Averages and records for this station are not official NWS values.
T = Trace of Precipitation, MM = Missing Value Source: NWS Daily Summary

Daily Weather History Graph

Daily Weather History Graph

Search for Another Location

Airport or City:

Trip Planner

Search our weather history database for the weather conditions in past years. The results will help you decide how hot, cold, wet, or windy it might be!

Date:

Astronomy

Jul. 21, 2013 Rise Set
Actual Time 5:58 AM CDT 8:58 PM CDT
Civil Twilight 5:24 AM CDT 9:32 PM CDT
Nautical Twilight 4:40 AM CDT 10:16 PM CDT
Astronomical Twilight 3:47 AM CDT 11:08 PM CDT
Moon 7:55 PM CDT (7/21) 4:46 AM CDT (7/21)
Length of Visible Light 16h 08m
Length of Day
14h 59m
Waxing Gibbous, 98% of the Moon is Illuminated
Jul 21
Waxing Gibbous
Jul 22
Full
Jul 29
Last Quarter
Aug 6
New
Aug 14
First Quarter

Hourly Weather History & Observations

Time (CDT) Temp. Heat Index Dew Point Humidity Pressure Visibility Wind Dir Wind Speed Gust Speed Precip Events Conditions
12:14 AM 68.2 °F - 63.5 °F 85% 29.95 in 10.0 mi Calm Calm - N/A   Scattered Clouds
12:34 AM 68.0 °F - 63.1 °F 84% 29.95 in 10.0 mi Calm Calm - N/A   Scattered Clouds
12:54 AM 67.3 °F - 63.0 °F 86% 29.95 in 10.0 mi Calm Calm - N/A   Clear
1:14 AM 68.4 °F - 63.5 °F 84% 29.94 in 10.0 mi Calm Calm - N/A   Clear
1:33 AM 68.0 °F - 63.5 °F 85% 29.93 in 10.0 mi Calm Calm - N/A   Clear
1:54 AM 67.5 °F - 63.1 °F 86% 29.92 in 10.0 mi Calm Calm - N/A   Clear
2:14 AM 67.1 °F - 63.0 °F 87% 29.92 in 10.0 mi Calm Calm - N/A   Clear
2:33 AM 67.3 °F - 63.3 °F 87% 29.92 in 10.0 mi Calm Calm - N/A   Mostly Cloudy
2:54 AM 68.2 °F - 63.5 °F 85% 29.92 in 10.0 mi Calm Calm - N/A   Overcast
3:14 AM 68.4 °F - 63.5 °F 84% 29.91 in 10.0 mi Calm Calm - N/A   Mostly Cloudy
3:33 AM 68.4 °F - 63.5 °F 84% 29.91 in 10.0 mi Calm Calm - N/A Rain Light Rain
3:54 AM 68.0 °F - 64.2 °F 88% 29.91 in 10.0 mi Calm Calm - 0.01 in Rain Light Rain
4:14 AM 67.5 °F - 64.4 °F 90% 29.89 in 10.0 mi Calm Calm - N/A   Mostly Cloudy
4:33 AM 67.5 °F - 64.4 °F 90% 29.89 in 10.0 mi Calm Calm - N/A   Overcast
4:54 AM 67.1 °F - 64.2 °F 90% 29.88 in 10.0 mi Calm Calm - N/A   Scattered Clouds
5:14 AM 66.4 °F - 63.7 °F 91% 29.89 in 10.0 mi Calm Calm - N/A   Clear
5:34 AM 65.7 °F - 63.5 °F 93% 29.88 in 10.0 mi Calm Calm - N/A   Clear
5:53 AM 64.6 °F - 62.8 °F 94% 29.89 in 7.0 mi Calm Calm - N/A   Clear
6:14 AM 64.4 °F - 62.8 °F 94% 29.90 in 4.0 mi Calm Calm - N/A   Clear
6:34 AM 63.3 °F - 61.7 °F 94% 29.90 in 1.0 mi Calm Calm - N/A   Scattered Clouds
6:53 AM 63.7 °F - 62.6 °F 96% 29.90 in 0.5 mi Calm Calm - N/A Fog Fog
7:14 AM 64.9 °F - 63.7 °F 96% 29.90 in 4.0 mi Calm Calm - N/A   Clear
7:34 AM 66.0 °F - 64.4 °F 94% 29.89 in 7.0 mi Calm Calm - N/A   Clear
7:54 AM 67.1 °F - 64.6 °F 92% 29.89 in 7.0 mi Calm Calm - N/A   Clear
8:14 AM 68.7 °F - 65.5 °F 89% 29.89 in 10.0 mi Calm Calm - N/A   Clear
8:34 AM 68.9 °F - 65.8 °F 90% 29.89 in 10.0 mi Calm Calm - N/A   Mostly Cloudy
8:54 AM 69.6 °F - 66.2 °F 89% 29.90 in 10.0 mi Calm Calm - N/A   Mostly Cloudy
9:13 AM 71.1 °F - 67.1 °F 87% 29.90 in 10.0 mi Calm Calm - N/A   Scattered Clouds
9:34 AM 71.2 °F - 66.7 °F 86% 29.91 in 10.0 mi Calm Calm - N/A   Mostly Cloudy
9:54 AM 73.8 °F - 66.7 °F 79% 29.91 in 10.0 mi Calm Calm - N/A   Mostly Cloudy
10:14 AM 73.8 °F - 66.7 °F 79% 29.91 in 10.0 mi Calm Calm - N/A   Overcast
10:34 AM 74.7 °F - 67.1 °F 77% 29.90 in 10.0 mi Calm Calm - N/A   Overcast
10:54 AM 76.3 °F - 67.3 °F 74% 29.90 in 10.0 mi Calm Calm - N/A   Mostly Cloudy
11:14 AM 77.7 °F - 67.3 °F 70% 29.89 in 10.0 mi Calm Calm - N/A   Scattered Clouds
11:34 AM 78.8 °F - 67.6 °F 68% 29.89 in 10.0 mi Calm Calm - N/A   Clear
11:54 AM 80.4 °F 83.0 °F 67.6 °F 65% 29.89 in 10.0 mi Calm Calm - N/A   Clear
12:14 PM 80.8 °F 82.9 °F 66.4 °F 61% 29.88 in 10.0 mi Calm Calm - N/A   Scattered Clouds
12:34 PM 81.7 °F 84.0 °F 66.6 °F 60% 29.88 in 10.0 mi SE 3.5 mph - N/A   Scattered Clouds
12:53 PM 82.8 °F 85.5 °F 67.6 °F 60% 29.87 in 10.0 mi Calm Calm - N/A   Scattered Clouds
1:14 PM 80.6 °F 83.1 °F 67.3 °F 64% 29.86 in 10.0 mi Calm Calm - N/A   Mostly Cloudy
1:34 PM 81.7 °F 84.3 °F 67.5 °F 62% 29.85 in 10.0 mi Calm Calm - N/A   Overcast
1:54 PM 82.9 °F 85.4 °F 66.9 °F 58% 29.85 in 10.0 mi Calm Calm - N/A   Mostly Cloudy
2:14 PM 82.4 °F 84.8 °F 66.7 °F 59% 29.84 in 10.0 mi Calm Calm - N/A   Mostly Cloudy
2:34 PM 85.1 °F 87.1 °F 65.7 °F 52% 29.83 in 10.0 mi Calm Calm - N/A   Mostly Cloudy
2:54 PM 85.8 °F 86.6 °F 63.0 °F 46% 29.83 in 10.0 mi Calm Calm - N/A   Scattered Clouds
3:14 PM 85.8 °F 86.6 °F 63.1 °F 46% 29.83 in 10.0 mi Calm Calm - N/A   Scattered Clouds
3:34 PM 84.9 °F 86.1 °F 63.9 °F 49% 29.83 in 10.0 mi Calm Calm - N/A   Mostly Cloudy
3:54 PM 84.6 °F 85.2 °F 62.1 °F 47% 29.83 in 10.0 mi Calm Calm - N/A   Mostly Cloudy
4:14 PM 86.0 °F 88.2 °F 66.2 °F 51% 29.82 in 10.0 mi Calm Calm - N/A   Scattered Clouds
4:34 PM 84.7 °F 85.2 °F 62.1 °F 46% 29.82 in 10.0 mi Calm Calm - N/A   Mostly Cloudy
4:53 PM 84.4 °F 85.0 °F 62.4 °F 47% 29.82 in 10.0 mi Calm Calm - N/A   Scattered Clouds
5:14 PM 85.3 °F 85.4 °F 61.0 °F 44% 29.82 in 10.0 mi Calm Calm - N/A   Scattered Clouds
5:34 PM 84.4 °F 84.6 °F 61.0 °F 45% 29.81 in 10.0 mi Calm Calm - N/A   Scattered Clouds
5:54 PM 85.6 °F 85.0 °F 59.0 °F 40% 29.81 in 10.0 mi Calm Calm - N/A   Scattered Clouds
6:13 PM 85.5 °F 85.0 °F 59.0 °F 41% 29.80 in 10.0 mi Calm Calm - N/A   Clear
6:33 PM 85.1 °F 84.8 °F 59.5 °F 42% 29.80 in 10.0 mi Calm Calm - N/A   Clear
6:54 PM 84.6 °F 84.4 °F 59.9 °F 43% 29.79 in 10.0 mi Calm Calm - N/A   Clear
7:14 PM 83.5 °F 84.1 °F 61.9 °F 48% 29.78 in 10.0 mi Calm Calm - N/A   Clear
7:34 PM 82.2 °F 82.9 °F 61.5 °F 49% 29.78 in 10.0 mi Calm Calm - N/A   Clear
7:54 PM 81.0 °F 81.8 °F 61.5 °F 51% 29.79 in 10.0 mi Calm Calm - N/A   Clear
8:13 PM 79.7 °F - 62.4 °F 55% 29.81 in 10.0 mi Calm Calm - N/A   Clear
8:33 PM 78.1 °F - 61.5 °F 57% 29.82 in 10.0 mi Calm Calm - N/A   Clear
8:54 PM 76.1 °F - 62.2 °F 62% 29.81 in 10.0 mi Calm Calm - N/A   Clear
9:14 PM 74.7 °F - 62.4 °F 66% 29.81 in 10.0 mi Calm Calm - N/A   Clear
9:34 PM 74.5 °F - 61.7 °F 64% 29.81 in 10.0 mi Calm Calm - N/A   Clear
9:54 PM 74.5 °F - 62.1 °F 65% 29.82 in 10.0 mi Calm Calm - N/A   Clear
10:14 PM 74.5 °F - 64.2 °F 70% 29.82 in 10.0 mi Calm Calm - N/A   Clear
10:33 PM 74.7 °F - 64.9 °F 72% 29.82 in 10.0 mi Calm Calm - N/A   Clear
10:54 PM 74.3 °F - 65.3 °F 73% 29.81 in 10.0 mi Calm Calm - N/A   Clear
11:14 PM 73.8 °F - 65.5 °F 75% 29.79 in 10.0 mi Calm Calm - N/A   Clear
11:34 PM 74.3 °F - 65.7 °F 74% 29.79 in 10.0 mi SSW 8.1 mph - N/A   Clear
11:54 PM 74.5 °F - 65.8 °F 74% 29.80 in 10.0 mi SSW 9.2 mph - N/A   Clear